GW7223 Weather Reports


time (UTC)temp
C
wind
direction
speed
KPH
gust
KPH
rain 1hr
cm
rain 24hr
cm
rain mn
cm
humidity
%
barometer
mb
20260509034937 25 42 0.0 0.0 0.00 0.00 0.00 79 1010.8
20260509034438 25 42 0.0 0.0 0.00 0.00 0.00 79 1010.7
20260509033952 25 41 1.6 0.0 0.00 0.00 0.00 79 1010.7
20260509033436 25 17 3.2 0.0 0.00 0.00 0.00 79 1010.7
20260509032938 25 11 6.4 0.0 0.00 0.00 0.00 79 1010.6
20260509032437 25 33 4.8 0.0 0.00 0.00 0.00 79 1010.6
20260509031952 25 6 9.7 0.0 0.00 0.00 0.00 79 1010.5
20260509031437 25 4 4.8 0.0 0.00 0.00 0.00 79 1010.4
20260509030944 25 356 8.0 0.0 0.00 0.00 0.00 78 1010.3
20260509030436 25 30 0.0 0.0 0.00 0.00 0.00 78 1010.1
20260509025937 25 42 0.0 0.0 0.00 0.00 0.00 78 1010.1
20260509025453 25 25 4.8 0.0 0.00 0.00 0.00 78 1010.1
20260509024953 25 359 4.8 0.0 0.00 0.00 0.00 78 1010.1
20260509024453 25 42 0.0 0.0 0.00 0.00 0.00 77 1010.0
20260509023937 25 42 0.0 0.0 0.00 0.00 0.00 77 1010.1
20260509023438 26 42 3.2 0.0 0.00 0.00 0.00 76 1010.2
20260509022944 26 42 4.8 0.0 0.00 0.00 0.00 76 1010.0
20260509022438 26 42 0.0 0.0 0.00 0.00 0.00 76 1010.1
20260509021938 26 42 0.0 0.0 0.00 0.00 0.00 76 1010.1
20260509021437 26 42 0.0 0.0 0.00 0.00 0.00 76 1010.0
20260509020939 26 42 6.4 0.0 0.00 0.00 0.00 76 1010.0
20260509020437 26 42 6.4 0.0 0.00 0.00 0.00 76 1009.8
20260509015937 26 42 6.4 0.0 0.00 0.00 0.00 76 1009.7
20260509015436 26 42 8.0 0.0 0.00 0.00 0.00 75 1009.6
20260509014952 26 42 9.7 0.0 0.00 0.00 0.00 75 1009.5
20260509014438 26 42 12.9 0.0 0.00 0.00 0.00 75 1009.4
20260509013937 26 42 6.4 0.0 0.00 0.00 0.00 74 1009.4
20260509013436 26 42 8.0 0.0 0.00 0.00 0.00 75 1009.3
20260509012939 26 42 12.9 0.0 0.00 0.00 0.00 74 1009.2
20260509012437 26 42 14.5 0.0 0.00 0.00 0.00 74 1009.1
20260509011939 26 42 17.7 0.0 0.00 0.00 0.00 74 1009.0
20260509011436 26 42 12.9 0.0 0.00 0.00 0.00 74 1008.9
20260509010938 27 42 3.2 0.0 0.00 0.00 0.00 74 1008.6
20260509010436 27 42 3.2 0.0 0.00 0.00 0.00 74 1008.5
20260509005937 27 42 3.2 0.0 0.00 0.00 0.00 72 1008.3
20260509005437 27 42 9.7 0.0 0.00 0.00 0.00 70 1008.2
20260509004937 28 42 4.8 0.0 0.00 0.00 0.00 70 1008.2
20260509004438 28 42 1.6 0.0 0.00 0.00 0.00 69 1008.2
20260509003938 28 42 1.6 0.0 0.00 0.00 0.00 70 1008.4
20260509003436 28 42 0.0 0.0 0.00 0.00 0.00 70 1008.5
20260509002953 28 42 0.0 0.0 0.00 0.00 0.00 70 1008.4
20260509002436 28 331 4.8 0.0 0.00 0.00 0.00 69 1008.4
20260509001937 28 42 0.0 0.0 0.00 0.00 0.00 68 1008.5
20260509001452 28 102 0.0 0.0 0.00 0.00 0.00 69 1008.5
20260509000936 28 70 0.0 0.0 0.00 0.00 0.00 69 1008.5
20260509000436 28 68 3.2 0.0 0.00 0.00 0.00 70 1008.5
20260508235952 28 78 0.0 0.0 0.00 0.00 0.00 70 1008.6
20260508235437 27 50 0.0 0.0 0.00 0.00 0.00 72 1008.6
20260508234951 27 74 1.6 0.0 0.00 0.00 0.00 71 1008.5
20260508234437 27 149 0.0 0.0 0.00 0.00 0.00 71 1008.5
20260508233937 27 99 3.2 0.0 0.00 0.00 0.00 72 1008.4
20260508233438 27 104 6.4 0.0 0.00 0.00 0.00 72 1008.4
20260508232951 27 110 3.2 0.0 0.00 0.00 0.00 72 1008.5
20260508232437 27 59 6.4 0.0 0.00 0.00 0.00 71 1008.5
20260508231937 27 106 6.4 0.0 0.00 0.00 0.00 70 1008.5
20260508231438 27 93 6.4 0.0 0.00 0.00 0.00 70 1008.5
20260508230936 27 100 4.8 0.0 0.00 0.00 0.00 70 1008.6
20260508230437 27 69 4.8 0.0 0.00 0.00 0.00 70 1008.6
20260508225937 28 77 4.8 0.0 0.00 0.00 0.00 70 1008.6
20260508225437 27 99 4.8 0.0 0.00 0.00 0.00 70 1008.5
20260508224938 27 102 4.8 0.0 0.00 0.00 0.00 71 1008.4
20260508224437 27 95 6.4 0.0 0.00 0.00 0.00 71 1008.2
20260508223938 27 110 3.2 0.0 0.00 0.00 0.00 72 1008.2
20260508223453 27 46 4.8 0.0 0.00 0.00 0.00 72 1008.1
20260508222938 27 106 1.6 0.0 0.00 0.00 0.00 72 1008.2
20260508222436 27 121 0.0 0.0 0.00 0.00 0.00 73 1008.3
20260508221938 27 167 8.0 0.0 0.00 0.00 0.00 71 1008.1
20260508221437 27 158 6.4 0.0 0.00 0.00 0.00 72 1008.0
20260508220938 27 152 19.3 0.0 0.00 0.00 0.00 71 1008.0
20260508220438 27 142 3.2 0.0 0.00 0.00 0.00 71 1008.2
20260508215937 28 165 17.7 0.0 0.00 0.00 0.00 70 1008.3
20260508215437 27 171 4.8 0.0 0.00 0.00 0.00 70 1008.4
20260508214936 28 151 12.9 0.0 0.00 0.00 0.00 69 1008.4
20260508214437 28 188 6.4 0.0 0.00 0.00 0.00 68 1008.5
20260508213952 28 42 1.6 0.0 0.00 0.00 0.00 68 1008.6
20260508213438 28 42 12.9 0.0 0.00 0.00 0.00 66 1008.6
20260508212938 28 42 11.3 0.0 0.00 0.00 0.00 65 1008.7
20260508212436 28 42 9.7 0.0 0.00 0.00 0.00 64 1008.6
20260508211937 28 39 12.9 0.0 0.00 0.00 0.00 64 1008.6
20260508211437 28 42 8.0 0.0 0.00 0.00 0.00 64 1008.6
20260508210938 28 42 17.7 0.0 0.00 0.00 0.00 64 1008.6
20260508210437 28 42 14.5 0.0 0.00 0.00 0.00 64 1008.5
20260508205936 28 42 9.7 0.0 0.00 0.00 0.00 63 1008.4
20260508205453 28 42 16.1 0.0 0.00 0.00 0.00 63 1008.4
20260508204951 29 40 3.2 0.0 0.00 0.00 0.00 64 1008.5
20260508204436 28 104 9.7 0.0 0.00 0.00 0.00 64 1008.7
20260508203951 28 130 12.9 0.0 0.00 0.00 0.00 64 1008.8
20260508203438 28 174 6.4 0.0 0.00 0.00 0.00 64 1008.9
20260508202953 28 159 12.9 0.0 0.00 0.00 0.00 64 1009.0
20260508202438 29 152 22.5 0.0 0.00 0.00 0.00 63 1009.1
20260508201937 29 130 14.5 0.0 0.00 0.00 0.00 61 1009.2
20260508201452 30 111 12.9 0.0 0.00 0.00 0.00 60 1009.2
20260508200936 30 74 24.1 0.0 0.00 0.00 0.00 60 1009.3
20260508200437 30 60 4.8 0.0 0.00 0.00 0.00 61 1009.3
20260508195936 29 167 6.4 0.0 0.00 0.00 0.00 61 1009.4
20260508195437 29 123 11.3 0.0 0.00 0.00 0.00 61 1009.5
20260508194938 30 167 24.1 0.0 0.00 0.00 0.00 60 1009.5
20260508194438 29 135 12.9 0.0 0.00 0.00 0.00 61 1009.6
20260508193953 29 140 27.4 0.0 0.00 0.00 0.00 60 1009.7
20260508193437 29 141 25.7 0.0 0.00 0.00 0.00 61 1009.8
20260508192938 29 160 17.7 0.0 0.00 0.00 0.00 61 1009.8
20260508192438 30 149 33.8 0.0 0.00 0.00 0.00 59 1009.9
20260508191938 30 111 27.4 0.0 0.00 0.00 0.00 59 1009.9
20260508191436 29 128 4.8 0.0 0.00 0.00 0.00 60 1010.0
20260508190938 30 81 20.9 0.0 0.00 0.00 0.00 59 1010.1
20260508190437 30 96 24.1 0.0 0.00 0.00 0.00 60 1010.2
20260508185937 30 100 16.1 0.0 0.00 0.00 0.00 60 1010.2
20260508185438 30 132 29.0 0.0 0.00 0.00 0.00 59 1010.3
20260508184936 30 93 14.5 0.0 0.00 0.00 0.00 58 1010.4
20260508184437 31 108 6.4 0.0 0.00 0.00 0.00 56 1010.4
20260508183937 31 298 0.0 0.0 0.00 0.00 0.00 54 1011.1
20260508183437 31 294 0.0 0.0 0.00 0.00 0.00 53 1011.1
20260508182938 31 294 0.0 0.0 0.00 0.00 0.00 53 1011.1
20260508182437 31 294 0.0 0.0 0.00 0.00 0.00 53 1011.2
20260508181953 31 294 0.0 0.0 0.00 0.00 0.00 53 1011.3
20260508181438 31 294 0.0 0.0 0.00 0.00 0.00 53 1011.4
20260508180938 31 294 0.0 0.0 0.00 0.00 0.00 54 1011.5
20260508180437 31 294 0.0 0.0 0.00 0.00 0.00 54 1011.6
20260508175936 31 294 0.0 0.0 0.00 0.00 0.00 54 1011.6
20260508175437 31 294 0.0 0.0 0.00 0.00 0.00 54 1011.7
20260508174937 31 294 0.0 0.0 0.00 0.00 0.00 54 1011.8
20260508174437 31 294 0.0 0.0 0.00 0.00 0.00 54 1011.8
20260508173937 31 294 0.0 0.0 0.00 0.00 0.00 54 1011.8
20260508173437 31 294 0.0 0.0 0.00 0.00 0.00 55 1011.8
20260508172952 30 294 0.0 0.0 0.00 0.00 0.00 55 1012.1
20260508172437 30 294 0.0 0.0 0.00 0.00 0.00 55 1012.1
20260508171937 30 294 0.0 0.0 0.00 0.00 0.00 55 1012.1
20260508171437 30 294 0.0 0.0 0.00 0.00 0.00 55 1012.1
20260508170936 30 294 0.0 0.0 0.00 0.00 0.00 55 1012.1
20260508170438 30 294 0.0 0.0 0.00 0.00 0.00 55 1012.1
20260508165938 30 294 0.0 0.0 0.00 0.00 0.00 55 1012.2
20260508165437 30 294 0.0 0.0 0.00 0.00 0.00 55 1012.3
20260508164937 30 295 0.0 0.0 0.00 0.00 0.00 54 1012.4
20260508164438 30 294 0.0 0.0 0.00 0.00 0.00 54 1012.3
20260508163938 30 294 0.0 0.0 0.00 0.00 0.00 53 1012.4
20260508163453 30 294 0.0 0.0 0.00 0.00 0.00 52 1012.4
20260508162938 30 294 0.0 0.0 0.00 0.00 0.00 52 1012.5
20260508162438 30 294 0.0 0.0 0.00 0.00 0.00 51 1012.6
20260508161954 30 294 0.0 0.0 0.00 0.00 0.00 50 1012.6
20260508161437 30 294 0.0 0.0 0.00 0.00 0.00 50 1012.7
20260508160938 30 294 0.0 0.0 0.00 0.00 0.00 50 1012.8
20260508160437 30 294 0.0 0.0 0.00 0.00 0.00 50 1012.9
20260508155938 30 294 0.0 0.0 0.00 0.00 0.00 49 1013.0
20260508155436 30 294 0.0 0.0 0.00 0.00 0.00 47 1013.1
20260508154937 30 294 0.0 0.0 0.00 0.00 0.00 47 1013.1
20260508154437 30 294 0.0 0.0 0.00 0.00 0.00 47 1013.2
20260508153938 30 294 0.0 0.0 0.00 0.00 0.00 47 1013.2
20260508153436 30 294 0.0 0.0 0.00 0.00 0.00 47 1013.2
20260508152938 30 294 0.0 0.0 0.00 0.00 0.00 47 1013.3
20260508152436 30 294 0.0 0.0 0.00 0.00 0.00 47 1013.3
20260508151938 30 294 0.0 0.0 0.00 0.00 0.00 47 1013.3
20260508151438 30 294 0.0 0.0 0.00 0.00 0.00 47 1013.3
20260508150937 30 294 0.0 0.0 0.00 0.00 0.00 47 1013.3
20260508150452 30 294 0.0 0.0 0.00 0.00 0.00 47 1013.3
20260508145938 30 294 0.0 0.0 0.00 0.00 0.00 47 1013.2
20260508145438 30 294 0.0 0.0 0.00 0.00 0.00 47 1013.2
20260508144938 30 294 0.0 0.0 0.00 0.00 0.00 47 1013.2
20260508144438 30 294 0.0 0.0 0.00 0.00 0.00 47 1013.1
20260508143938 30 294 0.0 0.0 0.00 0.00 0.00 47 1013.2
20260508143452 30 294 0.0 0.0 0.00 0.00 0.00 47 1013.1
20260508142937 30 294 0.0 0.0 0.00 0.00 0.00 47 1013.1
20260508142437 30 294 0.0 0.0 0.00 0.00 0.00 47 1013.0
20260508141938 30 294 0.0 0.0 0.00 0.00 0.00 47 1013.0
20260508141436 30 294 0.0 0.0 0.00 0.00 0.00 47 1013.0
20260508140938 30 294 0.0 0.0 0.00 0.00 0.00 47 1012.9
20260508140453 30 294 0.0 0.0 0.00 0.00 0.00 47 1012.9
20260508135938 30 294 0.0 0.0 0.00 0.00 0.00 47 1012.9
20260508135438 30 294 0.0 0.0 0.00 0.00 0.00 47 1012.8
20260508134937 30 294 0.0 0.0 0.00 0.00 0.00 47 1012.8
20260508134436 30 294 0.0 0.0 0.00 0.00 0.00 47 1012.8
20260508133936 30 294 0.0 0.0 0.00 0.00 0.00 47 1012.7
20260508133438 30 294 0.0 0.0 0.00 0.00 0.00 47 1012.7
20260508132937 30 294 0.0 0.0 0.00 0.00 0.00 47 1012.6
20260508132436 30 294 0.0 0.0 0.00 0.00 0.00 47 1012.5
20260508131937 30 294 0.0 0.0 0.00 0.00 0.00 47 1012.5
20260508131436 30 294 0.0 0.0 0.00 0.00 0.00 47 1012.4
20260508130938 30 294 0.0 0.0 0.00 0.00 0.00 47 1012.4
20260508130453 30 294 0.0 0.0 0.00 0.00 0.00 47 1012.4
20260508125938 30 294 0.0 0.0 0.00 0.00 0.00 47 1012.4
20260508125438 30 294 0.0 0.0 0.00 0.00 0.00 47 1012.4
20260508124937 30 294 0.0 0.0 0.00 0.00 0.00 47 1012.4
20260508124437 30 294 0.0 0.0 0.00 0.00 0.00 47 1012.3
20260508123937 29 294 0.0 0.0 0.00 0.00 0.00 47 1012.2
20260508123437 29 294 0.0 0.0 0.00 0.00 0.00 47 1012.0
20260508122938 29 294 0.0 0.0 0.00 0.00 0.00 47 1012.0
20260508122436 29 294 0.0 0.0 0.00 0.00 0.00 47 1011.9
20260508121953 29 294 0.0 0.0 0.00 0.00 0.00 47 1011.8
20260508121438 29 294 0.0 0.0 0.00 0.00 0.00 47 1011.7
20260508120953 29 294 0.0 0.0 0.00 0.00 0.00 47 1011.6
20260508120453 29 294 0.0 0.0 0.00 0.00 0.00 47 1011.4
20260508115938 29 294 0.0 0.0 0.00 0.00 0.00 47 1011.3
20260508115437 29 294 0.0 0.0 0.00 0.00 0.00 47 1011.3
20260508114938 29 294 0.0 0.0 0.00 0.00 0.00 47 1011.3
20260508114436 29 294 0.0 0.0 0.00 0.00 0.00 47 1011.2
20260508113951 29 294 0.0 0.0 0.00 0.00 0.00 47 1011.1
20260508113437 29 294 0.0 0.0 0.00 0.00 0.00 48 1011.0
20260508112939 29 294 0.0 0.0 0.00 0.00 0.00 48 1010.9
20260508112438 29 294 0.0 0.0 0.00 0.00 0.00 48 1010.9
20260508111938 29 294 0.0 0.0 0.00 0.00 0.00 48 1010.8
20260508111437 29 294 0.0 0.0 0.00 0.00 0.00 48 1010.8
20260508110936 29 294 0.0 0.0 0.00 0.00 0.00 48 1010.8
20260508110437 29 294 0.0 0.0 0.00 0.00 0.00 48 1010.7
20260508105952 29 294 0.0 0.0 0.00 0.00 0.00 48 1010.6
20260508105437 29 294 0.0 0.0 0.00 0.00 0.00 48 1010.5
20260508104937 29 294 0.0 0.0 0.00 0.00 0.00 48 1010.4
20260508104436 29 294 0.0 0.0 0.00 0.00 0.00 48 1010.3
20260508103951 29 294 0.0 0.0 0.00 0.00 0.00 48 1010.3
20260508103438 29 294 0.0 0.0 0.00 0.00 0.00 48 1010.2
20260508102938 28 294 0.0 0.0 0.00 0.00 0.00 48 1010.1
20260508102438 28 294 0.0 0.0 0.00 0.00 0.00 48 1010.1
20260508101936 28 294 0.0 0.0 0.00 0.00 0.00 48 1010.1
20260508101452 28 294 0.0 0.0 0.00 0.00 0.00 48 1010.1
20260508100936 28 294 0.0 0.0 0.00 0.00 0.00 48 1010.0
20260508100437 28 294 0.0 0.0 0.00 0.00 0.00 48 1010.0
20260508095937 28 294 0.0 0.0 0.00 0.00 0.00 48 1010.0
20260508095452 28 294 0.0 0.0 0.00 0.00 0.00 48 1010.1
20260508094937 28 294 0.0 0.0 0.00 0.00 0.00 48 1010.1
20260508094438 28 294 0.0 0.0 0.00 0.00 0.00 48 1010.2
20260508093939 28 294 0.0 0.0 0.00 0.00 0.00 48 1010.2
20260508093452 28 294 0.0 0.0 0.00 0.00 0.00 48 1010.2
20260508092937 28 294 0.0 0.0 0.00 0.00 0.00 48 1010.2
20260508092438 28 294 0.0 0.0 0.00 0.00 0.00 48 1010.2
20260508091952 28 294 0.0 0.0 0.00 0.00 0.00 48 1010.2
20260508091438 28 294 0.0 0.0 0.00 0.00 0.00 48 1010.3
20260508090938 28 294 0.0 0.0 0.00 0.00 0.00 48 1010.2
20260508090436 28 294 0.0 0.0 0.00 0.00 0.00 48 1010.3
20260508085937 28 294 0.0 0.0 0.00 0.00 0.00 48 1010.3
20260508085438 27 294 0.0 0.0 0.00 0.00 0.00 48 1010.4
20260508084937 27 294 0.0 0.0 0.00 0.00 0.00 48 1010.4
20260508084438 27 294 0.0 0.0 0.00 0.00 0.00 48 1010.4
20260508083938 27 294 0.0 0.0 0.00 0.00 0.00 48 1010.4
20260508083437 27 294 0.0 0.0 0.00 0.00 0.00 48 1010.5
20260508082937 27 294 0.0 0.0 0.00 0.00 0.00 48 1010.6
20260508082452 27 294 0.0 0.0 0.00 0.00 0.00 47 1010.6
20260508081936 27 294 0.0 0.0 0.00 0.00 0.00 48 1010.7
20260508081438 27 294 0.0 0.0 0.00 0.00 0.00 48 1010.8
20260508080938 27 294 0.0 0.0 0.00 0.00 0.00 48 1010.9
20260508080453 27 294 0.0 0.0 0.00 0.00 0.00 48 1011.0
20260508075936 26 294 0.0 0.0 0.00 0.00 0.00 48 1011.0
20260508075453 26 294 0.0 0.0 0.00 0.00 0.00 48 1011.1
20260508074936 26 294 0.0 0.0 0.00 0.00 0.00 49 1011.1
20260508074438 26 294 0.0 0.0 0.00 0.00 0.00 49 1011.3
20260508073936 26 294 0.0 0.0 0.00 0.00 0.00 49 1011.4
20260508073437 26 294 0.0 0.0 0.00 0.00 0.00 49 1011.4
20260508072938 26 294 0.0 0.0 0.00 0.00 0.00 48 1011.6
20260508072452 25 294 0.0 0.0 0.00 0.00 0.00 46 1011.6
20260508071938 25 294 0.0 0.0 0.00 0.00 0.00 45 1011.8
20260508071438 25 294 0.0 0.0 0.00 0.00 0.00 42 1011.9
20260508070953 25 294 0.0 0.0 0.00 0.00 0.00 40 1012.0
20260508070437 25 294 0.0 0.0 0.00 0.00 0.00 41 1012.1
20260508065938 25 294 0.0 0.0 0.00 0.00 0.00 44 1012.2
20260508065437 25 294 0.0 0.0 0.00 0.00 0.00 45 1012.4
20260508064938 25 294 0.0 0.0 0.00 0.00 0.00 44 1012.4
20260508064438 25 294 0.0 0.0 0.00 0.00 0.00 42 1012.4
20260508063939 25 294 0.0 0.0 0.00 0.00 0.00 40 1012.5
20260508063437 25 294 0.0 0.0 0.00 0.00 0.00 43 1012.5
20260508062937 25 294 0.0 0.0 0.00 0.00 0.00 41 1012.6
20260508062437 25 294 0.0 0.0 0.00 0.00 0.00 42 1012.5
20260508061953 25 294 0.0 0.0 0.00 0.00 0.00 39 1012.6
20260508061438 25 294 0.0 0.0 0.00 0.00 0.00 33 1012.8
20260508060937 25 294 0.0 0.0 0.00 0.00 0.00 33 1012.8
20260508060436 25 294 0.0 0.0 0.00 0.00 0.00 33 1012.8
20260508055937 25 294 0.0 0.0 0.00 0.00 0.00 33 1012.8
20260508055437 25 294 0.0 0.0 0.00 0.00 0.00 33 1012.8
20260508054937 25 294 0.0 0.0 0.00 0.00 0.00 33 1012.8
20260508054437 25 294 0.0 0.0 0.00 0.00 0.00 33 1012.8
20260508053936 25 294 0.0 0.0 0.00 0.00 0.00 33 1012.8
20260508053437 25 294 0.0 0.0 0.00 0.00 0.00 33 1012.8
20260508052953 25 294 0.0 0.0 0.00 0.00 0.00 33 1012.8
20260508052437 25 294 0.0 0.0 0.00 0.00 0.00 33 1012.8
20260508051938 25 294 0.0 0.0 0.00 0.00 0.00 33 1012.8
20260508051437 25 294 0.0 0.0 0.00 0.00 0.00 33 1012.8
20260508050937 25 294 0.0 0.0 0.00 0.00 0.00 33 1012.8
20260508050452 25 294 0.0 0.0 0.00 0.00 0.00 33 1012.8
20260508045937 25 294 0.0 0.0 0.00 0.00 0.00 33 1012.8
20260508045438 25 294 0.0 0.0 0.00 0.00 0.00 33 1012.8
20260508044937 25 294 0.0 0.0 0.00 0.00 0.00 33 1012.8
20260508044438 25 294 0.0 0.0 0.00 0.00 0.00 33 1012.8
20260508043953 25 294 0.0 0.0 0.00 0.00 0.00 33 1012.8
20260508043452 25 294 0.0 0.0 0.00 0.00 0.00 33 1012.8
20260508042937 25 294 0.0 0.0 0.00 0.00 0.00 33 1012.8
20260508042438 25 294 0.0 0.0 0.00 0.00 0.00 33 1012.8
20260508041937 25 294 0.0 0.0 0.00 0.00 0.00 33 1012.8
20260508041436 25 294 0.0 0.0 0.00 0.00 0.00 33 1012.8
20260508040936 25 294 0.0 0.0 0.00 0.00 0.00 33 1012.8
20260508040438 25 294 0.0 0.0 0.00 0.00 0.00 33 1012.7
20260508035937 25 294 0.0 0.0 0.00 0.00 0.00 33 1012.6
20260508035436 25 295 0.0 0.0 0.00 0.00 0.00 33 1012.5